Location: Newark
(50.4348°N, 30.5552°E)
Time: 22:57:27
(UTC+00:00)

Envisat - Pass Details

Date: 15 December 2019
Orbit: 764 x 766 km, 98.1° (Epoch: 21 January)

Event Time Altitude Azimuth Distance (km) Brightness Sun altitude
Rises 03:13:04 0° 31° (NNE) 3,245 6.5 -23.9°
Reaches altitude 10° 03:16:59 10° 61° (ENE) 2,311 6.2 -23.3°
Maximum altitude 03:18:58 12° 84° (E) 2,157 6.3 -22.9°
Drops below altitude 10° 03:20:58 10° 108° (ESE) 2,304 6.6 -22.6°
Sets 03:24:50 0° 138° (SE) 3,222 7.0 -22.0°
